Regional Weather Roundup
Issued by NWS Cleveland, OH

Home | Current Version | Previous Version | Text Only | Print | Product List | Glossary Off
Versions: 1 2 3 4 5 6 7 8 9 10 11 12 13 14 15 16 17 18 19 20 21 22 23 24 25 26 27 28 29 30 31 32 33 34 35 36 37 38 39 40 41 42 43 44 45 46 47 48 49 50

000
ASUS41 KCLE 161900
RWRCLE
OHIO REGIONAL WEATHER ROUNDUP
NATIONAL WEATHER SERVICE WILMINGTON, OH
200 PM EST SAT DEC 16 2017

NOTE: "FAIR" INDICATES FEW OR NO CLOUDS BELOW 12,000 FEET WITH NO
SIGNIFICANT WEATHER AND/OR OBSTRUCTIONS TO VISIBILITY.

OHZ001>008-015>018-024>027-034-035-043-044-162000-
   NORTHWEST OHIO

CITY           SKY/WX    TMP DP  RH WIND       PRES   REMARKS
DEFIANCE       FAIR      42  28  57 VRB6      29.96S
FINDLAY        FAIR      43  29  57 W15       29.96F
TOLEDO EXPRESS PTSUNNY   40  29  64 SW15      29.96S
TOLEDO EXEC    CLOUDY    40  29  64 SW13      29.98S
LIMA           FAIR      44  30  57 SW16      29.96F
$$

OHZ009>014-019>023-028>033-038-089-162000-
   NORTHEAST OHIO

CITY           SKY/WX    TMP DP  RH WIND       PRES   REMARKS
CLE-HOPKINS    CLOUDY    39  28  64 W14       30.00S
CLE-LAKEFRONT  CLOUDY    38  27  64 SW10      29.98S
CUY CO. ARPT   LGT SNOW  39  28  65 W12       29.98S
LORAIN-ELYRIA  CLOUDY    38  24  57 W17       29.98F
ASHTABULA      LGT SNOW  33  29  85 SW7       29.98S FOG     WCI  27
AKRON-CANTON   PTSUNNY   40  26  57 SW10      29.98S
WOOSTER        NOT AVBL
MANSFIELD      FAIR      41  27  57 SW17G23   29.97F
YOUNGSTOWN     FLURRIES  36  26  67 SW12      29.98S
$$

OHZ042-051>053-060>062-070>072-077>081-162000-
  SOUTHWEST OHIO

CITY           SKY/WX    TMP DP  RH WIND       PRES   REMARKS
CINC-COVINGTON FAIR      49  29  46 SW14G24   30.05F
CINC-LUNKEN    FAIR      50  29  44 SW17      30.08F
HAMILTON       FAIR      50  29  44 SW12G20   30.04F
DAYTON         NOT AVBL
WRIGHT-PAT AFB FAIR      47  25  42 SW18      30.01S
DAYTON GENERAL FAIR      47  27  45 SW15G26   30.01F
WILMINGTON     FAIR      46  29  51 SW20G28   30.02F
$$

OHZ036-037-039>041-045>050-054>059-063>069-073>076-082>088-162000-
  CENTRAL AND SOUTHEAST OHIO

CITY           SKY/WX    TMP DP  RH WIND       PRES   REMARKS
COLUMBUS       FAIR      47  27  45 SW21G26   30.02F
OSU AIRPORT    FAIR      46  28  49 SW21G28   30.00F
BOLTON FIELD   SUNNY    N/A N/A N/A SW20G25   30.02F
RICKENBACK AFB NOT AVBL
NEWARK         FAIR      46  27  47 SW22G29   30.01F
MARION         NOT AVBL
LANCASTER      FAIR      47  27  45 SW17G25   30.04F
ZANESVILLE     FAIR      46  26  45 SW13G20   30.03F
NEW PHILLY     FAIR      42  28  57 VRB7      30.01F
$$



USA.gov is the U.S. government's official web portal to all federal, state and local government web resources and services.